User: anonymous   Login
Location: Caltech
(34.1382°N, 118.1253°W)
Time: 18:45:02
(UTC-08:00)
Language:

BREEZE M DEB (TANK) - Orbit

View from above orbital plane
View from above orbital plane
View from above satellite
View from above satellite

Ground track
Ground track

The orbit data is extracted from the following two-line orbital elements,

1 33437U 08057B   17016.82951591  .00001052  00000-0  24576-3 0  9990
2 33437  49.6074  15.7443 5002788 325.4696  10.3490  5.59942652165377
Epoch (UTC): 16 January 2017 19:54:30
Eccentricity: 0.5002788
inclination: 49.6074°
perigee height: 316 km
apogee height: 13719 km
right ascension of ascending node: 15.7443°
argument of perigee: 325.4696°
revolutions per day: 5.59942652
mean anomaly at epoch: 10.3490°
orbit number at epoch: 16537

The dashed part of the orbit path shows where the satellite is in the earth's shadow,  

DLR